Location: Unspecified
(48.2082°N, 0.0000°E)
Time: 21:58:54
(UTC+00:00)

S-56A Canister/Altair - Pass Details

Date: 26 June 2019
Orbit: 632 x 2500 km, 38.9° (Epoch: 19 July)

Event Time Altitude Azimuth Distance (km) Brightness Sun altitude
Rises 19:36:52 0° 271° (W) 4,171 12.4 3.0°
Reaches altitude 10° 19:41:06 10° 253° (WSW) 2,842 11.1 2.4°
Maximum altitude 19:45:09 17° 215° (SW) 2,053 9.8 1.8°
Drops below altitude 10° 19:48:33 10° 174° (S) 2,288 9.6 1.3°
Sets 19:51:27 0° 154° (SSE) 3,051 10.1 0.9°
